Tracy, MN

1:45 PM CST on December 05, 2019 (GMT -0600)
Tracy

Weather History for KTKC - November, 2019

Change the Weather History Date:

Thursday, November 14, 2019

  Actual Average (KMML) Record (KMML)
Temperature  
Mean Temperature 28 °F -  
Max Temperature 37 °F 40 °F 70 °F (1953)
Min Temperature 19 °F 23 °F -6 °F (1959)
Degree Days  
Heating Degree Days 37    
Moisture  
Dew Point 23 °F    
Average Humidity 79    
Maximum Humidity 87    
Minimum Humidity 60    
Precipitation  
Precipitation 0.00 in - - ()
Sea Level Pressure  
Sea Level Pressure 30.20 in    
Wind  
Wind Speed 11 mph (West)    
Max Wind Speed 15 mph    
Max Gust Speed 21 mph    
Visibility 10 miles    
Events      
Averages and records for this station are not official NWS values.
T = Trace of Precipitation, MM = Missing Value Source: NWS Daily Summary

Daily Weather History Graph

Daily Weather History Graph

Search for Another Location

Airport or City:

Astronomy

Nov. 14, 2019 Rise Set
Actual Time 7:16 AM CST 4:56 PM CST
Civil Twilight 6:45 AM CST 5:27 PM CST
Nautical Twilight 6:10 AM CST 6:02 PM CST
Astronomical Twilight 5:36 AM CST 6:37 PM CST
Moon 6:40 PM CST (11/14) 9:15 AM CST (11/14)
Length of Visible Light 10h 42m
Length of Day
9h 40m
Waning Gibbous, 95% of the Moon is Illuminated
Nov 14
Waning Gibbous
Nov 19
Last Quarter
Nov 26
New
Dec 4
First Quarter
Dec 11
Full

Hourly Weather History & Observations

Time (CST) Temp. Windchill Dew Point Humidity Pressure Visibility Wind Dir Wind Speed Gust Speed Precip Events Conditions
12:59 AM 23.0 °F 11.7 °F 17.6 °F 80% 30.15 in 10.0 mi North 11.5 mph - N/A   Overcast
1:59 AM 21.2 °F 8.3 °F 15.8 °F 80% 30.16 in 10.0 mi NNW 13.8 mph 17.3 mph N/A   Overcast
2:59 AM 21.2 °F 9.5 °F 15.8 °F 80% 30.18 in 10.0 mi NNW 11.5 mph 17.3 mph N/A   Overcast
3:59 AM 21.2 °F 10.1 °F 15.8 °F 80% 30.20 in 10.0 mi North 10.4 mph - N/A   Overcast
4:59 AM 19.4 °F 10.4 °F 15.8 °F 86% 30.21 in 10.0 mi North 6.9 mph - N/A   Overcast
5:59 AM 19.4 °F 7.9 °F 15.8 °F 86% 30.22 in 10.0 mi NNW 10.4 mph - N/A   Overcast
6:59 AM 21.2 °F 12.6 °F 17.6 °F 86% 30.23 in 10.0 mi WNW 6.9 mph - N/A   Overcast
7:59 AM 19.4 °F 10.4 °F 15.8 °F 86% 30.26 in 10.0 mi WNW 6.9 mph - N/A   Overcast
8:59 AM 21.2 °F 12.6 °F 15.8 °F 80% 30.25 in 10.0 mi SW 6.9 mph - N/A   Clear
9:59 AM 23.0 °F 17.0 °F 15.8 °F 74% 30.25 in 10.0 mi WSW 4.6 mph - N/A   Clear
10:59 AM 26.6 °F 17.5 °F 17.6 °F 69% 30.25 in 10.0 mi SW 9.2 mph - N/A   Clear
12:59 PM 35.6 °F 28.6 °F 23.0 °F 60% 30.22 in 10.0 mi West 9.2 mph - N/A   Clear
2:59 PM 37.4 °F 29.3 °F 28.4 °F 70% 30.19 in 10.0 mi SW 12.7 mph - N/A   Mostly Cloudy
3:59 PM 37.4 °F 28.9 °F 28.4 °F 70% 30.17 in 10.0 mi SW 13.8 mph - N/A   Scattered Clouds
4:59 PM 37.4 °F 28.9 °F 30.2 °F 75% 30.16 in 10.0 mi SW 13.8 mph - N/A   Clear
5:59 PM 35.6 °F 26.6 °F 30.2 °F 81% 30.17 in 10.0 mi SW 13.8 mph - N/A   Clear
6:59 PM 37.4 °F 28.5 °F 32.0 °F 81% 30.17 in 10.0 mi SW 15.0 mph - N/A   Clear
7:59 PM 37.4 °F 28.9 °F 32.0 °F 81% 30.17 in 10.0 mi SW 13.8 mph - N/A   Clear
8:59 PM 37.4 °F 29.3 °F 32.0 °F 81% 30.18 in 10.0 mi SW 12.7 mph - N/A   Clear
9:59 PM 37.4 °F 28.5 °F 32.0 °F 81% 30.19 in 10.0 mi SW 15.0 mph 20.7 mph N/A   Clear
10:59 PM 37.4 °F 29.8 °F 32.0 °F 81% 30.21 in 10.0 mi WSW 11.5 mph - N/A   Clear
11:59 PM 35.6 °F 27.5 °F 32.0 °F 87% 30.21 in 10.0 mi WSW 11.5 mph - N/A   Clear